Dewpoint
59 59 59 59 60 60 60 60 60 61 61 61 62 62 62 62 61 61 62 62 61 61 61 61 62 63 62 63 62 62 59 47 42 40 39 43 52 64 65 65 64 63 65 58 51 37 32 29 29 29 37 44 45 42 49 46 46 45 38 31 27 25 23 29 27 24 26 24 20 20 20 19 17 23 24 24 22 22 22 26 27 26 26 29 33 37 36 35
58 58 58 59 59 60 59 60 61 60 60 61 61 62 61 61 62 62 62 62 61 61 61 61 62 63 63 62 62 61 54 57 45 40 36 63 65 64 65 64 65 64 64 48 38 32 31 26 26 28 31 35 53 40 39 45 45 40 34 31 26 28 26 22 21 18 17 20 20 20 20 20 18 20 22 20 19 20 20 20 23 24 24 27 30 35 33 33
58 58 59 59 59 59 59 60 61 60 60 61 60 61 61 61 61 61 61 61 62 61 61 61 62 62 62 61 60 59 59 54 45 39 37 61 64 64 66 65 64 66 59 48 41 33 30 28 26 26 29 26 40 34 44 41 35 32 33 29 28 31 25 23 22 21 22 19 17 18 20 19 20 20 20 21 18 19 19 18 20 21 22 26 29 33 32 32
58 58 58 59 59 59 59 60 60 59 60 61 61 61 61 61 61 61 61 61 61 61 61 61 61 62 62 61 61 60 59 54 38 37 47 61 63 64 64 65 64 64 57 48 39 31 28 26 26 27 35 25 32 35 36 39 35 33 28 27 28 30 25 21 20 20 19 21 20 18 20 21 21 21 19 20 18 18 18 19 19 19 21 24 27 33 32 31
57 57 58 58 59 59 59 59 59 59 60 60 60 61 61 61 61 61 60 61 61 61 61 60 61 62 62 62 60 58 58 35 34 45 55 61 63 62 63 65 62 57 51 46 31 27 26 25 25 31 35 26 28 31 29 33 31 38 27 26 24 21 23 21 20 20 21 23 21 19 17 19 21 19 19 19 18 18 18 19 19 19 20 22 26 31 32 31
57 57 57 58 58 58 58 59 59 59 59 59 60 60 60 61 61 61 60 60 60 60 60 61 60 61 62 62 59 59 53 18 50 54 59 61 60 61 62 61 61 58 43 37 32 30 29 26 26 33 26 24 24 24 25 25 30 24 23 24 24 21 19 21 21 25 21 20 19 18 19 19 21 20 20 19 18 18 20 24 23 22 24 21 26 29 32 31
57 57 57 57 58 58 58 58 58 59 59 60 60 60 60 60 61 61 60 60 60 60 60 60 60 62 61 60 55 51 46 28 54 58 58 58 59 61 59 59 57 54 38 31 25 29 30 27 26 24 24 23 21 20 20 26 32 23 21 20 20 20 19 20 19 23 21 21 18 20 21 22 20 18 20 19 19 20 20 20 22 22 23 25 25 28 30 31
56 56 56 57 57 57 58 58 58 59 59 60 60 60 60 60 61 61 61 60 60 61 60 60 60 60 59 60 59 40 42 37 44 54 53 58 57 53 58 54 47 49 36 25 27 24 27 24 24 27 24 22 25 22 24 28 24 22 21 21 21 23 22 23 20 21 21 20 20 22 21 19 19 18 19 18 19 19 20 20 20 22 22 24 25 27 30 31
56 56 56 56 57 57 57 58 58 58 59 59 59 60 60 60 61 60 61 60 60 60 60 60 60 61 58 50 46 38 26 54 42 45 57 51 46 48 52 42 38 35 30 27 26 28 37 30 24 32 23 25 26 24 24 23 20 22 21 21 19 19 19 19 19 19 20 21 21 21 20 20 19 22 19 19 19 20 21 20 20 21 26 22 24 26 28 30
56 56 56 56 56 57 57 57 58 58 58 59 59 59 59 60 60 60 60 60 60 60 60 60 60 60 57 54 48 30 51 40 44 40 47 46 42 41 39 51 30 30 29 24 25 25 28 34 44 40 42 24 25 23 26 26 20 21 20 19 18 18 18 19 18 17 20 20 20 19 19 18 19 21 17 19 20 21 21 20 21 20 20 20 21 25 27 29
56 56 56 56 56 56 57 57 57 57 58 58 58 58 59 59 59 60 60 59 60 59 59 59 61 55 56 49 37 25 53 54 43 39 44 46 42 35 47 49 41 41 30 33 27 29 35 34 45 40 42 22 24 23 23 23 21 20 19 18 18 18 18 18 18 18 19 18 19 20 19 19 19 26 18 18 20 25 20 20 21 22 21 20 20 20 27 27
57 57 56 56 56 56 56 56 57 57 57 57 58 58 58 59 59 59 59 59 59 59 60 58 59 54 47 43 36 39 40 42 44 41 42 43 51 52 53 41 35 51 42 26 34 47 50 48 45 28 20 32 22 22 23 20 20 20 19 16 17 17 17 16 16 17 19 18 20 20 19 17 18 19 19 20 20 20 19 19 20 20 21 23 22 21 23 24
57 57 56 56 56 56 56 56 57 57 57 57 57 58 58 58 59 59 59 59 58 59 59 60 56 53 56 39 40 49 44 40 47 44 46 48 46 43 48 50 49 45 44 37 44 51 50 44 45 29 30 26 25 21 26 25 20 20 18 18 18 17 16 17 17 16 18 18 19 18 14 12 13 17 18 19 19 19 18 19 19 21 21 21 23 21 23 23
57 57 56 56 56 56 56 57 57 57 57 57 57 57 58 58 58 59 58 58 58 60 61 60 60 54 44 29 49 47 42 43 50 45 47 51 42 50 52 51 51 42 49 48 50 45 47 35 44 30 37 26 22 34 22 22 21 18 19 19 19 19 17 18 16 16 17 20 19 17 15 10 10 9 18 18 19 18 18 18 18 21 22 21 22 22 23 23
58 57 56 56 55 55 56 57 57 57 57 57 57 57 57 58 58 58 58 58 59 60 61 59 56 54 38 27 43 43 57 43 36 45 48 38 43 49 48 42 47 44 36 37 45 44 40 46 44 27 22 26 31 23 21 21 21 18 18 19 23 19 18 18 20 17 16 20 18 17 18 13 12 11 10 17 19 18 18 18 18 19 19 20 21 21 22 23
58 57 56 56 56 56 56 57 57 57 57 58 57 57 57 57 57 57 58 58 60 61 59 57 54 49 36 26 50 54 48 35 38 47 44 49 51 48 46 47 46 46 34 32 37 32 32 44 27 28 26 25 22 22 22 22 22 20 18 24 22 23 20 18 19 18 17 18 18 16 14 11 12 13 19 21 18 18 17 17 17 18 18 18 18 19 21 23
58 57 57 57 56 56 56 56 56 56 57 57 57 57 57 57 57 57 59 60 58 59 60 49 42 39 21 44 39 36 36 45 50 48 44 42 47 47 43 45 38 37 42 36 40 45 34 31 38 32 35 22 20 27 23 23 22 24 24 19 25 22 20 18 19 20 25 18 17 17 14 12 11 10 15 22 20 18 17 17 17 15 15 15 18 19 21 22
58 58 57 57 57 57 56 56 56 57 57 57 57 57 57 58 59 57 54 56 58 55 52 51 47 44 28 36 25 26 46 41 51 48 48 38 47 42 39 30 38 34 39 31 42 31 32 28 28 26 25 25 20 22 24 17 20 23 20 19 15 17 19 19 18 17 19 18 16 16 16 15 15 14 13 13 15 18 17 17 15 14 14 15 16 16 17 22
58 58 57 57 57 56 56 56 56 57 57 58 57 57 58 61 59 55 49 49 43 46 39 34 37 25 23 34 32 37 48 49 46 45 40 43 49 43 40 32 41 28 31 25 26 25 34 35 38 32 26 23 20 19 21 21 19 16 14 15 18 21 19 17 16 20 19 18 17 16 15 15 15 16 16 15 15 14 14 15 16 15 15 16 16 17 18 21
58 58 58 57 56 56 56 56 57 58 58 55 53 52 54 51 48 37 39 43 30 24 24 25 31 28 40 28 38 43 50 51 34 42 44 48 40 40 32 27 42 40 26 29 35 27 37 27 28 27 21 20 20 20 20 19 18 17 22 24 19 20 18 17 16 16 18 16 16 15 15 14 14 14 14 13 13 14 13 13 14 15 15 15 15 17 19 19
59 59 58 56 56 56 56 57 57 57 57 55 52 50 27 31 28 17 31 33 36 32 26 22 30 27 22 44 45 39 34 34 38 42 44 44 45 27 25 25 33 31 28 27 35 32 38 29 26 25 21 18 18 17 18 19 19 18 22 24 20 24 18 17 16 15 14 16 16 15 16 16 14 14 14 13 13 12 12 12 13 13 13 14 15 16 18 21
58 59 58 57 57 56 57 57 57 57 57 54 53 44 38 41 48 47 35 18 32 35 34 29 29 24 26 31 41 41 35 23 39 42 48 42 36 23 25 23 26 25 28 29 27 32 29 27 25 24 22 20 18 18 19 20 21 23 21 21 23 19 22 20 18 14 15 20 14 15 14 15 15 15 14 14 13 13 13 14 14 14 15 16 17 18 20 31
58 58 58 58 57 57 57 57 57 57 55 52 46 42 47 47 48 50 47 39 30 31 32 33 27 24 20 30 35 34 24 20 15 41 39 42 33 27 27 21 21 22 27 23 23 26 27 27 26 24 22 18 16 19 20 23 26 23 21 21 19 21 23 18 20 22 13 14 18 18 17 17 17 18 17 18 17 17 18 18 20 21 18 18 17 18 25 30
58 58 58 58 58 58 57 57 57 55 54 50 46 47 50 49 49 48 48 32 21 23 26 27 26 24 21 18 31 26 20 17 16 26 41 34 28 34 32 22 19 20 17 18 21 21 19 22 25 24 24 20 19 20 23 21 18 25 25 22 19 21 21 21 17 19 17 15 20 18 19 18 19 18 18 18 19 18 18 18 19 21 25 25 29 31 33 32
58 58 58 58 58 58 57 57 53 48 46 45 48 47 49 49 48 49 45 29 26 30 48 43 43 42 27 40 35 22 20 20 19 37 39 32 28 25 23 23 21 19 18 16 20 24 22 21 32 23 29 25 29 22 26 27 18 18 29 25 21 19 17 20 23 27 25 23 24 27 14 11 16 19 19 19 18 18 18 17 17 18 19 20 23 25 30 36
58 58 58 58 58 58 57 53 50 50 47 46 45 47 47 49 49 47 43 30 25 33 37 30 39 28 41 29 38 35 20 18 34 41 37 41 41 29 22 20 20 19 18 19 15 20 20 27 27 25 28 30 30 25 28 29 20 20 19 32 27 26 28 29 30 27 23 19 26 25 16 14 15 13 13 17 18 17 18 20 19 20 20 20 22 23 30 34
58 58 58 58 58 57 49 47 50 49 46 48 47 48 47 48 50 44 37 27 19 32 28 44 37 34 45 37 30 26 17 18 42 40 37 45 31 42 21 18 20 18 24 29 27 19 18 22 26 31 30 29 29 25 28 25 23 19 31 34 28 26 27 30 30 27 23 26 28 27 23 16 14 13 16 14 13 14 15 17 19 19 21 21 19 19 31 34
58 58 58 58 58 56 52 50 49 46 46 48 51 47 50 47 50 47 33 17 16 36 36 29 39 44 40 32 43 13 21 28 28 30 32 40 37 32 24 18 17 19 20 26 16 36 24 32 28 30 30 27 25 25 35 30 25 25 30 31 31 30 29 28 27 24 24 21 21 23 26 17 14 14 14 14 13 12 11 11 13 14 16 18 20 20 29 34
58 57 57 58 58 57 56 53 50 47 50 53 50 49 49 50 42 36 27 17 36 30 39 26 44 40 33 35 30 28 24 29 21 28 39 35 39 30 24 23 20 17 18 21 16 29 33 34 33 31 29 24 28 27 33 36 26 33 33 32 31 30 28 27 22 22 22 18 17 22 22 15 12 13 17 17 14 13 13 11 10 11 12 13 21 21 24 33
58 57 57 57 57 56 54 53 51 53 52 50 51 48 50 45 41 29 22 15 34 28 30 37 33 30 28 26 26 26 23 25 26 28 30 26 34 37 26 29 25 22 25 21 26 27 29 27 34 35 29 29 25 27 33 31 31 33 32 30 28 27 24 22 23 20 20 17 17 21 23 16 12 19 17 18 20 14 11 10 10 12 15 15 22 24 32 33
58 57 57 57 54 53 52 49 50 52 52 52 51 51 49 43 29 19 16 25 32 36 34 30 25 31 24 24 22 24 26 24 25 27 26 27 27 28 25 25 31 27 25 26 26 28 28 31 28 32 33 27 29 31 30 31 33 33 24 23 24 25 20 20 20 21 15 14 16 19 22 21 15 15 21 15 16 14 11 9 9 11 11 16 21 29 32 32
57 57 57 57 56 56 50 48 51 53 51 51 51 48 39 29 27 16 21 23 28 31 27 28 33 31 25 29 30 27 24 23 24 24 23 24 26 24 23 20 25 20 23 21 20 25 25 27 27 34 35 29 31 28 27 29 29 32 23 21 17 18 19 19 20 15 18 13 18 20 22 21 16 10 14 15 11 14 12 10 10 12 15 19 32 35 34 33
57 57 57 57 56 55 53 53 52 51 49 49 46 40 36 23 22 23 22 28 24 32 31 36 29 28 33 31 28 34 33 28 24 22 31 31 26 27 30 25 30 24 17 26 22 25 27 30 30 32 30 31 29 20 25 20 22 26 21 22 20 15 15 12 16 20 18 20 20 19 25 16 14 15 18 13 9 11 12 13 16 17 15 17 36 34 33 31
57 57 56 56 57 56 55 53 52 50 50 48 43 40 30 22 25 35 28 23 29 33 37 39 31 32 33 27 32 34 30 36 25 24 26 30 27 25 28 28 28 28 30 23 17 25 21 18 27 30 25 32 27 21 21 22 21 21 25 21 21 20 10 9 13 11 13 14 15 21 16 21 11 12 19 17 16 13 11 13 17 20 19 20 32 34 32 30
57 57 57 57 56 57 56 53 51 52 50 47 42 35 25 24 31 31 27 27 28 26 29 35 36 31 31 32 35 34 28 30 29 29 26 28 26 25 25 25 27 26 29 22 25 19 20 18 26 30 33 30 27 27 28 31 24 24 25 25 20 21 18 15 15 15 14 17 16 18 15 13 8 11 20 18 17 17 16 13 17 16 22 25 29 31 30 29
56 56 57 55 55 56 56 52 52 51 48 43 36 29 27 32 30 31 30 26 24 29 31 32 36 31 28 29 35 35 37 30 32 29 29 27 27 25 28 30 27 25 25 22 25 19 22 17 34 32 34 28 26 33 28 30 19 24 23 21 21 29 21 20 21 22 18 15 15 17 15 16 14 12 14 14 14 13 15 13 13 13 17 21 27 27 27 27
55 56 53 55 55 57 55 52 51 50 47 42 35 29 34 34 33 34 32 28 24 19 33 19 27 25 27 24 28 32 34 32 32 28 26 31 26 28 28 29 31 27 25 23 25 26 21 14 33 29 26 30 27 30 32 33 31 23 19 23 29 30 28 21 17 17 16 14 13 15 13 9 9 10 16 14 14 10 11 13 11 13 16 19 25 27 28 27
55 54 54 54 55 57 54 52 52 49 45 39 33 36 39 33 32 29 31 31 28 28 32 22 25 27 21 20 20 30 34 25 30 30 26 28 24 31 27 29 29 29 26 27 30 29 28 16 19 31 31 30 30 30 27 32 31 24 24 32 21 19 16 19 17 13 12 11 11 10 7 10 9 8 9 11 13 11 9 12 11 12 15 20 22 24 26 28
54 53 49 54 57 56 53 52 51 46 42 35 33 34 38 36 35 36 30 28 32 36 24 27 22 29 24 20 22 30 30 23 29 28 23 25 21 30 26 28 33 29 28 26 24 25 27 21 21 28 29 29 28 26 22 24 29 29 28 26 28 18 19 20 20 16 13 11 9 11 13 8 13 10 11 11 12 13 10 11 11 11 15 18 21 23 23 28
52 49 48 55 56 55 53 52 48 44 39 33 34 36 43 38 36 36 35 33 39 30 34 25 26 21 24 25 27 22 31 26 26 27 23 27 19 30 26 27 29 33 28 27 28 30 23 21 17 24 27 29 19 23 22 23 23 22 21 19 22 19 21 19 20 18 14 11 11 9 8 11 18 9 9 12 11 11 11 12 16 18 18 20 20 22 23 25
53 48 47 54 55 54 52 49 43 38 36 38 40 38 37 37 37 35 38 37 38 38 38 32 29 22 26 23 20 24 24 30 27 25 26 23 17 18 31 28 31 33 34 33 29 28 26 19 20 20 18 20 19 26 24 25 23 22 22 20 19 20 17 16 16 19 19 15 12 10 10 14 13 8 12 13 13 14 14 16 22 22 21 21 23 22 23 24
49 42 46 54 53 52 48 40 38 39 36 34 36 40 38 41 39 38 38 38 39 34 32 27 36 32 30 24 25 26 25 24 27 27 27 23 26 21 30 31 27 35 29 26 26 30 30 24 22 20 19 20 25 27 31 28 31 30 22 20 22 19 19 18 13 17 17 18 18 18 13 13 11 14 15 14 14 13 20 19 20 23 22 23 24 23 24 24
47 45 51 53 53 50 46 39 40 38 35 37 40 39 41 40 41 42 39 40 38 38 36 33 31 31 33 31 30 29 28 28 29 26 28 28 27 27 30 27 32 36 34 28 33 35 33 27 21 22 26 27 26 29 30 28 28 26 26 27 23 20 19 17 19 14 16 18 17 16 15 14 15 22 15 13 17 19 18 17 17 17 17 20 23 24 24 25
46 47 47 52 52 49 44 35 34 35 35 38 38 38 40 41 40 39 38 39 38 37 36 35 35 32 33 37 36 34 37 31 34 35 32 33 29 28 32 29 25 26 28 26 23 33 22 24 20 20 21 22 24 24 22 24 24 22 21 24 27 26 25 23 23 23 16 18 16 13 12 14 17 20 18 16 14 13 13 13 17 19 20 22 21 22 24 24
46 48 47 48 51 50 42 42 39 37 36 35 36 35 37 38 40 39 39 38 40 39 37 37 36 36 36 37 34 32 33 33 31 34 33 29 30 32 31 33 36 28 25 39 31 30 24 26 26 21 19 17 16 17 18 21 20 21 24 22 24 25 25 22 20 21 17 18 16 15 13 12 12 13 13 13 12 12 13 14 14 19 19 18 19 21 20 21
42 37 44 43 47 46 45 46 44 40 37 36 35 36 37 36 38 39 39 38 38 39 40 39 38 38 36 35 33 31 30 32 30 31 32 32 33 33 34 34 36 31 30 34 33 33 26 30 32 28 25 23 22 23 26 27 22 18 23 22 22 24 25 25 23 20 18 19 19 18 17 16 15 14 14 14 14 13 13 15 16 17 17 18 20 22 22 22
44 39 39 36 43 43 42 43 42 42 39 37 34 36 35 36 36 37 40 37 39 38 38 39 37 35 35 34 33 32 33 33 33 32 31 32 33 35 36 34 31 32 35 33 36 34 30 27 29 30 30 29 30 28 27 27 24 24 24 24 24 24 25 25 23 20 21 20 17 19 20 21 19 17 16 16 16 16 16 16 16 16 17 18 20 23 28 23
36 38 40 42 37 34 37 37 41 40 40 40 37 37 35 35 35 35 39 39 39 39 38 39 38 37 37 35 34 32 33 33 33 31 32 32 32 32 32 32 31 32 32 29 34 28 29 27 29 31 30 31 31 29 28 26 25 25 25 24 24 24 25 23 23 23 22 20 17 19 21 21 18 18 18 17 17 17 16 16 16 16 16 16 18 21 22 24
39 41 42 44 38 40 39 39 40 39 39 40 38 38 36 36 35 36 36 35 38 37 38 35 36 37 36 36 35 33 33 32 31 33 32 32 31 31 30 31 32 33 31 29 29 30 29 28 30 31 30 30 30 29 28 27 26 25 25 25 25 25 24 24 23 22 22 22 21 20 19 19 18 18 18 18 19 18 16 17 17 17 16 17 17 17 18 20
35 38 36 38 39 39 39 39 39 37 35 37 35 36 37 37 36 36 38 36 34 37 39 36 36 37 37 36 35 34 34 34 33 32 33 33 32 32 31 32 33 31 31 30 30 31 28 27 30 29 28 29 30 30 30 28 27 26 26 26 25 24 23 25 25 24 24 23 22 22 22 21 21 20 19 19 18 19 18 18 17 18 18 17 17 18 20 21
41 39 39 35 31 35 35 36 36 37 35 36 35 35 36 36 36 38 37 39 38 35 38 37 37 37 37 36 36 35 36 35 35 35 35 34 32 34 33 32 34 32 29 29 29 30 29 27 30 29 27 27 29 29 29 29 28 26 25 25 24 24 22 22 23 23 24 24 24 23 22 21 21 21 21 21 21 20 20 19 19 19 18 18 19 19 20 20
38 39 39 37 30 33 32 34 34 34 32 36 36 36 36 35 36 37 36 38 39 40 39 40 39 40 38 38 37 38 38 38 37 37 36 36 38 37 37 38 36 35 30 29 31 29 29 28 27 27 26 25 28 29 28 27 27 26 26 26 26 25 24 24 25 25 25 24 24 22 22 22 22 22 22 22 21 21 21 21 21 20 20 20 20 20 21 21